Weather History for Omaha, NE

Change the Weather History Date:

Tuesday, January 8, 2013

  Actual Average Record
Temperature  
Mean Temperature 32 °F 23 °F  
Max Temperature 42 °F 33 °F 68 °F (2003)
Min Temperature 21 °F 13 °F -23 °F (1886)
Degree Days  
Heating Degree Days 34 42  
Month to date heating degree days 336  
Since 1 July heating degree days 2815  
Cooling Degree Days 0 0  
Month to date cooling degree days 0  
Year to date cooling degree days 0  
Moisture  
Dew Point 24 °F    
Average Humidity 75    
Maximum Humidity 93    
Minimum Humidity 51    
Precipitation  
Precipitation 0.00 in 0.03 in 0.22 in (1936)
Month to date precipitation 0.18  
Year to date precipitation 0.18  
Snow  
Snow 0.00 in 0.20 in - ()
Month to date snowfall 1.5  
Since 1 July snowfall 10.5  
Snow Depth 1.00 in    
Sea Level Pressure  
Sea Level Pressure 29.98 in    
Wind  
Wind Speed 6 mph (South)    
Max Wind Speed 18 mph    
Max Gust Speed 26 mph    
Visibility 9 miles    
Events Fog    
T = Trace of Precipitation, MM = Missing Value Source: NWS Daily Summary

Daily Weather History Graph

Daily Weather History Graph

Search for Another Location

Airport:

Trip Planner

Search our weather history database for the weather conditions in past years. The results will help you decide how hot, cold, wet, or windy it might be!

Date:

Astronomy

Jan. 08, 2013 Rise Set
Actual Time 7:49 AM CST 5:12 PM CST
Civil Twilight 7:18 AM CST 5:42 PM CST
Nautical Twilight 6:43 AM CST 6:17 PM CST
Astronomical Twilight 6:10 AM CST 6:50 PM CST
Moon 4:23 AM CST (1/8) 2:15 PM CST (1/8)
Length of Visible Light 10h 24m
Length of Day
9h 22m
Waning Crescent, 13% of the Moon is Illuminated
Jan 8
Waning Crescent
Jan 11
New
Jan 18
First Quarter
Jan 26
Full
Feb 3
Last Quarter

Hourly Weather History & Observations

Time (CST) Temp. Windchill Dew Point Humidity Pressure Visibility Wind Dir Wind Speed Gust Speed Precip Events Conditions
12:52 AM 19.0 °F 11.1 °F 16.0 °F 88% 29.99 in 6.0 mi NNW 5.8 mph - N/A   Partly Cloudy
1:52 AM 19.0 °F - 16.0 °F 88% 29.98 in 7.0 mi Calm Calm - N/A   Partly Cloudy
2:52 AM 19.0 °F - 16.0 °F 88% 29.97 in 7.0 mi Calm Calm - N/A   Partly Cloudy
3:38 AM 17.6 °F 9.3 °F 15.8 °F 93% 29.93 in 4.0 mi North 5.8 mph - N/A   Partly Cloudy
3:52 AM 16.0 °F 8.8 °F 12.0 °F 84% 29.96 in 6.0 mi North 4.6 mph - N/A   Partly Cloudy
4:52 AM 18.0 °F - 14.0 °F 84% 29.93 in 5.0 mi Calm Calm - N/A   Clear
5:52 AM 21.0 °F 13.4 °F 17.1 °F 85% 29.93 in 7.0 mi SE 5.8 mph - N/A Fog Patches of Fog
6:52 AM 24.1 °F 17.0 °F 21.0 °F 88% 29.94 in 7.0 mi SSE 5.8 mph - N/A   Partly Cloudy
7:52 AM 24.1 °F 15.2 °F 21.0 °F 88% 29.94 in 10.0 mi SE 8.1 mph - N/A   Mostly Cloudy
8:52 AM 28.9 °F 19.8 °F 25.0 °F 85% 29.94 in 10.0 mi SSE 10.4 mph - N/A   Mostly Cloudy
9:52 AM 32.0 °F 24.2 °F 26.1 °F 79% 29.94 in 10.0 mi South 9.2 mph - N/A   Mostly Cloudy
10:52 AM 37.9 °F 30.0 °F 28.0 °F 68% 29.92 in 10.0 mi SSW 12.7 mph 20.7 mph N/A   Mostly Cloudy
11:52 AM 39.9 °F 31.8 °F 28.0 °F 63% 29.89 in 10.0 mi SSW 15.0 mph 24.2 mph N/A   Mostly Cloudy
12:52 PM 41.0 °F 32.2 °F 28.0 °F 60% 29.88 in 10.0 mi SW 18.4 mph 26.5 mph N/A   Mostly Cloudy
1:52 PM 42.1 °F 36.1 °F 28.0 °F 58% 29.88 in 10.0 mi SSW 10.4 mph 21.9 mph N/A   Mostly Cloudy
2:52 PM 42.1 °F 34.2 °F 28.9 °F 60% 29.90 in 10.0 mi SSW 16.1 mph - N/A   Scattered Clouds
3:52 PM 42.1 °F 36.6 °F 28.9 °F 60% 29.94 in 10.0 mi SW 9.2 mph - N/A   Mostly Cloudy
4:52 PM 39.9 °F 32.5 °F 27.0 °F 60% 29.97 in 10.0 mi WSW 12.7 mph - N/A   Mostly Cloudy
5:52 PM 37.9 °F - 27.0 °F 65% 29.98 in 10.0 mi Calm Calm - N/A   Mostly Cloudy
6:52 PM 37.0 °F 33.3 °F 28.0 °F 70% 30.02 in 10.0 mi South 4.6 mph - N/A   Mostly Cloudy
7:52 PM 35.1 °F 30.1 °F 28.0 °F 76% 30.06 in 10.0 mi South 5.8 mph - N/A   Partly Cloudy
8:52 PM 34.0 °F 31.0 °F 27.0 °F 75% 30.09 in 10.0 mi South 3.5 mph - N/A   Partly Cloudy
9:52 PM 33.1 °F - 27.0 °F 78% 30.12 in 10.0 mi Calm Calm - N/A   Scattered Clouds
10:52 PM 30.9 °F 26.2 °F 26.1 °F 82% 30.14 in 9.0 mi SE 4.6 mph - N/A   Clear
11:52 PM 28.4 °F 20.4 °F 24.8 °F 86% 30.13 in 8.0 mi SSE 8.1 mph - N/A   Clear